Regional Weather Roundup
Issued by NWS Newport/Morehead, NC

Current Version | Previous Version | Graphics & Text | Print | Product List | Glossary Off
Versions: 1 2 3 4 5 6 7 8 9 10 11 12 13 14 15 16 17 18 19 20 21 22 23 24 25 26 27 28 29 30 31 32 33 34 35 36 37 38 39 40 41 42 43 44 45 46 47 48 49 50

000
ASUS42 KMHX 261213
RWRMHX
WEATHER ROUNDUP FOR EASTERN NORTH CAROLINA
NATIONAL WEATHER SERVICE NEWPORT/MOREHEAD CITY NC
800 AM EDT TUE MAY 26 2015

NOTE: "FAIR" INDICATES FEW OR NO CLOUDS BELOW 12,000 FEET
WITH NO SIGNIFICANT WEATHER AND/OR OBSTRUCTIONS TO VISIBILITY

NCZ015>017-031-032-045>047-102-103-261300-
NORTH COAST

CITY           SKY/WX    TMP DP  RH WIND       PRES   REMARKS
EDENTON        SUNNY     72  64  78 S7        30.33R
ELIZABETH CITY SUNNY     72  65  78 S6        30.33R
KITTY HAWK     SUNNY     73  64  74 SW5       30.32S
MANTEO         MOSUNNY   71  64  78 SW3       30.34R

$$

NCZ045>047-081-094-103-104-261300-
CENTRAL COAST

CITY           SKY/WX    TMP DP  RH WIND       PRES   REMARKS
FRISCO         CLOUDY    74  65  73 S10       30.34R
SWANQUARTER      N/A     77 N/A N/A S5        30.30S

$$

NCZ095-097-098-100-101-261300-
SOUTHERN COAST

CITY           SKY/WX    TMP DP  RH WIND       PRES   REMARKS
BEAUFORT       MOSUNNY   75  67  76 S8        30.32R
CEDAR ISLAND     N/A     77 N/A N/A S8        30.36S
JACKSONVILLE   MOSUNNY   73  67  81 CALM      30.31R
PINEY ISLAND   SUNNY    N/A N/A N/A S6        30.32R
WILMINGTON     MOSUNNY   75  68  78 SE7       30.30R


$$

NCZ011>013-027>030-043-044-078>080-089-090>093-098-261300-
COASTAL PLAIN

CITY           SKY/WX    TMP DP  RH WIND       PRES   REMARKS
AHOSKIE        SUNNY     66  63  88 SE5       30.32S
CLINTON        PTSUNNY   69  66  91 CALM      30.32R
ELIZABETHTOWN  MOSUNNY   68  65  91 CALM      30.30R
GOLDSBORO      SUNNY     70  65  84 CALM      30.30R
GREENVILLE     PTSUNNY   68  64  88 CALM      30.33R
HAVELOCK       PTSUNNY   73  66  78 CALM      30.33R
KENANSVILLE    PTSUNNY   66  63  91 CALM      30.33R
KINSTON        SUNNY     68  64  88 CALM      30.33R
NEW BERN       MOSUNNY   72  65  78 CALM      30.33R
RICHLANDS      CLOUDY    66  61  82 CALM      30.32R
ROCKY MOUNT    SUNNY     69  64  84 VRB3      30.33R
WASHINGTON     MOSUNNY   70  64  83 CALM      30.33R
WHITEVILLE     SUNNY     70  66  87 CALM      30.29R

$$

AMZ130-135-150-152-154-156-158-170-250-252-270-ANZ085-086-088-633-658-670-261300-
MARINE OBSERVATIONS

STATION/POSITION TIME  TEMP    WIND        PRES    WAVE   SWELL
                       AIR SEA DIR/SP/G            HT/PER HT/PER
                 (UTC) (F)     (DEG/KT/KT) (MB)    (FT/S) (FT/S)
CHESAPEAKE LIGHT 1100   68     210/ 14/ 14 1026.8
64 E VA BEACH    1150   65 63  170/  6/  8 1027.0    2/ 6   2/ 6
DUCK             1100   70 60  190/  4/  5 1025.8
2 E DUCK         1111      63                N/A     1/ 7
OREGON INLET     1100   73 75  200/  8/ 10 1026.8
13E OREGON INLT  1200      66                N/A     3/ 5
HATTERAS CG      1100   75 75  170/  7/ 11 1026.2
DIAMOND BUOY     1150   75 77  170/ 16/ 17 1027.0    3/ 5   2/ 9
CAPE LOOKOUT     1200   74     160/ 10/ 11 1026.4
BEAUFORT LAB     1100   75 74  190/  8/ 11 1025.5
27 SE WRIGHTSVLE 1100   73 76  170/ 12/ 16   N/A
5 SE WRIGHTSVLE  1108   76 76  160/ 12/ 16 1025.5
225 S CAPE HAT   1150   74 74  130/ 12/ 14 1027.1    4/ 6   3/ 6
41 SE CHARLESTON 1150   77 76  180/  4/  6 1024.5    3/ 6   3/ 6

$$



USA.gov is the U.S. government's official web portal to all federal, state and local government web resources and services.